Consulta los datos en tiempo real de la estación municipal de Susqueda - Veïnat del Coll
| Hora UTC | 03:05 |
|---|---|
| Temperatura | 23.9 ºC |
| Humedad | 49.9 % |
| Presión | 1024.7 hPa |
| Pluja | 0.0 mm |
| Velocidad viento | 6.7 km/h |
| Dirección viento | SW |
| Radiación solar | 0.1 W/m² |
| Temperatura (ºC) | Humedad (%) | Presión (hPa) | Velocidad viento (km/h) | Precipitación (mm) | Radiación solar (W/m²) | |||||||||||||
|---|---|---|---|---|---|---|---|---|---|---|---|---|---|---|---|---|---|---|
| Hora UTC | Aire | Humedad | Presión | Vel. | Dir. | Vel. Max | Dir. | Intent. máx 5 min. | Rad. Sol. | |||||||||
| 00:05 | 24.1 | 49.9 | 1025.3 | 7.1 | SSW | 7.1 | SSW | 0.0 | 0.1 | |||||||||
| 00:10 | 24.1 | 49.7 | 1025.3 | 6.4 | SW | 13.1 | SW | 0.0 | 0.1 | |||||||||
| 00:15 | 24.1 | 49.4 | 1025.3 | 6.9 | SW | 14.8 | WSW | 0.0 | 0.1 | |||||||||
| 00:20 | 24.1 | 49.6 | 1025.3 | 6.1 | SW | 14.1 | SSW | 0.0 | 0.1 | |||||||||
| 00:25 | 24.0 | 49.7 | 1025.3 | 5.7 | SW | 14.5 | SW | 0.0 | 0.1 | |||||||||
| 00:30 | 24.1 | 49.7 | 1025.3 | 6.6 | SW | 13.1 | SW | 0.0 | 0.1 | |||||||||
| 00:35 | 24.1 | 49.5 | 1025.2 | 5.8 | SW | 12.4 | SSW | 0.0 | 0.1 | |||||||||
| 00:40 | 24.1 | 49.4 | 1025.2 | 5.7 | SW | 20.5 | S | 0.0 | 0.1 | |||||||||
| 00:45 | 24.1 | 49.4 | 1025.1 | 6.3 | SW | 13.8 | WSW | 0.0 | 0.1 | |||||||||
| 00:50 | 24.0 | 49.5 | 1025.1 | 6.5 | SW | 12.7 | WSW | 0.0 | 0.1 | |||||||||
| 00:55 | 24.0 | 49.6 | 1025.1 | 5.6 | SW | 12.0 | SW | 0.0 | 0.1 | |||||||||
| 01:00 | 23.9 | 49.7 | 1025.1 | 7.0 | SW | 17.6 | SSW | 0.0 | 0.1 | |||||||||
| 01:05 | 24.0 | 49.3 | 1025.0 | 7.9 | SW | 14.1 | SSW | 0.0 | 0.1 | |||||||||
| 01:10 | 24.0 | 49.4 | 1025.0 | 8.4 | SW | 20.1 | SSW | 0.0 | 0.1 | |||||||||
| 01:15 | 24.0 | 49.5 | 1025.0 | 6.5 | SW | 15.2 | S | 0.0 | 0.1 | |||||||||
| 01:20 | 24.1 | 49.3 | 1025.0 | 7.1 | SW | 17.3 | SW | 0.0 | 0.1 | |||||||||
| 01:25 | 24.1 | 48.9 | 1024.9 | 8.5 | SW | 19.4 | SW | 0.0 | 0.1 | |||||||||
| 01:30 | 24.0 | 49.2 | 1024.9 | 7.7 | SW | 19.1 | SW | 0.0 | 0.1 | |||||||||
| 01:35 | 24.0 | 49.2 | 1024.9 | 7.8 | SW | 17.6 | SSW | 0.0 | 0.1 | |||||||||
| 01:40 | 24.0 | 49.6 | 1024.9 | 7.7 | SW | 20.5 | SSW | 0.0 | 0.1 | |||||||||
| 01:45 | 24.1 | 49.7 | 1025.0 | 7.8 | SW | 14.8 | SSW | 0.0 | 0.1 | |||||||||
| 01:50 | 24.1 | 50.1 | 1025.0 | 7.8 | SW | 15.5 | W | 0.0 | 0.1 | |||||||||
| 01:55 | 24.1 | 49.9 | 1024.9 | 6.8 | SW | 15.2 | W | 0.0 | 0.1 | |||||||||
| 02:00 | 24.0 | 50.1 | 1024.9 | 6.0 | SW | 13.1 | SW | 0.0 | 0.1 | |||||||||
| 02:05 | 24.0 | 50.3 | 1024.9 | 6.1 | SW | 14.1 | SW | 0.0 | 0.1 | |||||||||
| 02:10 | 24.0 | 50.3 | 1024.9 | 5.4 | SW | 14.5 | W | 0.0 | 0.1 | |||||||||
| 02:15 | 24.0 | 50.4 | 1024.9 | 6.3 | SW | 15.2 | W | 0.0 | 0.1 | |||||||||
| 02:20 | 23.9 | 50.8 | 1024.9 | 5.3 | SW | 14.8 | SSW | 0.0 | 0.1 | |||||||||
| 02:25 | 23.7 | 51.4 | 1024.8 | 5.2 | SW | 11.3 | WSW | 0.0 | 0.1 | |||||||||
| 02:30 | 23.7 | 51.2 | 1024.8 | 5.9 | SW | 16.9 | W | 0.0 | 0.1 | |||||||||
| 02:35 | 23.8 | 51.1 | 1024.8 | 6.2 | WSW | 13.1 | W | 0.0 | 0.1 | |||||||||
| 02:40 | 23.8 | 51.0 | 1024.8 | 5.3 | WSW | 13.4 | WSW | 0.0 | 0.1 | |||||||||
| 02:45 | 23.7 | 50.7 | 1024.8 | 6.5 | SW | 15.2 | SW | 0.0 | 0.1 | |||||||||
| 02:50 | 23.8 | 50.2 | 1024.8 | 6.6 | SW | 14.8 | SW | 0.0 | 0.1 | |||||||||
| 02:55 | 23.9 | 50.0 | 1024.7 | 5.8 | SW | 13.1 | SSW | 0.0 | 0.1 | |||||||||
| 03:00 | 24.0 | 49.7 | 1024.7 | 6.4 | SW | 18.0 | W | 0.0 | 0.1 | |||||||||
| 03:05 | 23.9 | 49.9 | 1024.7 | 6.7 | SW | 14.5 | SSE | 0.0 | 0.1 | |||||||||
| Máxima | 24.1 | 51.4 | 1025.3 | 8.5 | SW | 20.5 | SSW | 0.0 | 0.1 | |||||||||
| Mínima | 20 | 48.9 | 1024.7 | |||||||||||||||
| Total | 0.0 | |||||||||||||||||